User: anonymous   Login
Location: Nederland
(52.1000°N, 5.2000°E)
Time: 22:49:54
(UTC+01:00)
Language:

FENGYUN 1C DEB - Orbit

View from above orbital plane
View from above orbital plane
View from above satellite
View from above satellite

Ground track
Ground track

The orbit data is extracted from the following two-line orbital elements,

1 29871U 99025FR  22021.36913649  .00000725  00000-0  28227-3 0  9998
2 29871  98.9844 264.9411 0069529 321.9896  90.3991 14.31649530783046
Epoch (UTC): 21 January 2022 08:51:33
Eccentricity: 0.0069529
inclination: 98.9844°
perigee height: 736 km
apogee height: 836 km
right ascension of ascending node: 264.9411°
argument of perigee: 321.9896°
revolutions per day: 14.31649530
mean anomaly at epoch: 90.3991°
orbit number at epoch: 78304

The dashed part of the orbit path shows where the satellite is in the earth's shadow,  

DLR